TimeMST,TemperatureF,Dew PointF,Humidity,Sea Level PressureIn,VisibilityMPH,Wind Direction,Wind SpeedMPH,Gust SpeedMPH,PrecipitationIn,Events,Conditions,WindDirDegrees,DateUTC
12:15 AM,32.0,28.4,87,30.11,10.0,SSW,5.8,-,N/A,,Partly Cloudy,200,2013-02-07 07:15:00
12:35 AM,33.8,28.4,81,30.11,10.0,South,5.8,-,N/A,,Partly Cloudy,190,2013-02-07 07:35:00
12:55 AM,33.8,30.2,87,30.11,10.0,South,5.8,-,N/A,,Mostly Cloudy,180,2013-02-07 07:55:00
1:15 AM,33.8,30.2,87,30.11,10.0,South,3.5,-,N/A,,Overcast,190,2013-02-07 08:15:00
1:35 AM,35.6,30.2,81,30.11,10.0,South,6.9,-,N/A,,Overcast,180,2013-02-07 08:35:00
1:55 AM,35.6,30.2,81,30.11,10.0,South,5.8,-,N/A,,Overcast,170,2013-02-07 08:55:00
2:15 AM,35.6,30.2,81,30.12,10.0,South,6.9,-,N/A,,Overcast,170,2013-02-07 09:15:00
2:35 AM,35.6,32.0,87,30.12,10.0,Calm,Calm,-,N/A,,Overcast,0,2013-02-07 09:35:00
2:55 AM,35.6,30.2,81,30.12,10.0,Calm,Calm,-,N/A,,Overcast,0,2013-02-07 09:55:00
3:15 AM,35.6,30.2,81,30.12,10.0,Calm,Calm,-,N/A,,Mostly Cloudy,0,2013-02-07 10:15:00
3:35 AM,33.8,30.2,87,30.12,10.0,Calm,Calm,-,N/A,,Mostly Cloudy,0,2013-02-07 10:35:00
3:55 AM,33.8,30.2,87,30.12,10.0,Calm,Calm,-,N/A,,Mostly Cloudy,0,2013-02-07 10:55:00
4:15 AM,32.0,28.4,87,30.12,10.0,SW,3.5,-,N/A,,Scattered Clouds,220,2013-02-07 11:15:00
4:35 AM,32.0,28.4,87,30.12,10.0,SSW,3.5,-,N/A,,Partly Cloudy,210,2013-02-07 11:35:00
4:55 AM,32.0,26.6,80,30.12,10.0,South,3.5,-,N/A,,Mostly Cloudy,190,2013-02-07 11:55:00
5:15 AM,30.2,26.6,86,30.13,10.0,SSW,3.5,-,N/A,,Mostly Cloudy,200,2013-02-07 12:15:00
5:35 AM,30.2,26.6,86,30.13,10.0,Calm,Calm,-,N/A,,Mostly Cloudy,0,2013-02-07 12:35:00
5:55 AM,28.4,26.6,93,30.13,10.0,Calm,Calm,-,N/A,,Partly Cloudy,0,2013-02-07 12:55:00
6:15 AM,28.4,24.8,86,30.14,10.0,Calm,Calm,-,N/A,,Clear,0,2013-02-07 13:15:00
6:35 AM,26.6,24.8,93,30.14,10.0,Calm,Calm,-,N/A,,Clear,0,2013-02-07 13:35:00
6:55 AM,26.6,24.8,93,30.15,10.0,Calm,Calm,-,N/A,,Clear,0,2013-02-07 13:55:00
7:15 AM,26.6,24.8,93,30.16,10.0,South,3.5,-,N/A,,Clear,190,2013-02-07 14:15:00
7:35 AM,26.6,24.8,93,30.17,10.0,Calm,Calm,-,N/A,,Clear,0,2013-02-07 14:35:00
7:55 AM,28.4,24.8,86,30.18,10.0,Calm,Calm,-,N/A,,Clear,0,2013-02-07 14:55:00
8:15 AM,32.0,28.4,87,30.18,10.0,Calm,Calm,-,N/A,,Clear,0,2013-02-07 15:15:00
8:35 AM,35.6,28.4,75,30.19,10.0,Calm,Calm,-,N/A,,Clear,0,2013-02-07 15:35:00
8:55 AM,35.6,28.4,75,30.19,10.0,Calm,Calm,-,N/A,,Clear,0,2013-02-07 15:55:00
9:15 AM,37.4,28.4,70,30.19,10.0,Calm,Calm,-,N/A,,Clear,0,2013-02-07 16:15:00
9:35 AM,37.4,28.4,70,30.19,10.0,Calm,Calm,-,N/A,,Clear,0,2013-02-07 16:35:00
9:55 AM,39.2,28.4,65,30.19,10.0,Calm,Calm,-,N/A,,Clear,0,2013-02-07 16:55:00
10:15 AM,39.2,28.4,65,30.19,10.0,Calm,Calm,-,N/A,,Clear,0,2013-02-07 17:15:00
10:35 AM,41.0,28.4,61,30.19,10.0,Calm,Calm,-,N/A,,Clear,0,2013-02-07 17:35:00
10:55 AM,42.8,28.4,57,30.19,10.0,Calm,Calm,-,N/A,,Clear,0,2013-02-07 17:55:00
11:15 AM,42.8,26.6,53,30.19,10.0,Calm,Calm,-,N/A,,Clear,0,2013-02-07 18:15:00
11:35 AM,44.6,26.6,49,30.18,10.0,Calm,Calm,-,N/A,,Clear,0,2013-02-07 18:35:00
11:55 AM,46.4,26.6,46,30.18,10.0,Calm,Calm,-,N/A,,Clear,0,2013-02-07 18:55:00
12:15 PM,46.4,21.2,37,30.17,10.0,Calm,Calm,-,N/A,,Mostly Cloudy,0,2013-02-07 19:15:00
12:35 PM,46.4,21.2,37,30.16,10.0,Calm,Calm,-,N/A,,Scattered Clouds,0,2013-02-07 19:35:00
12:55 PM,48.2,21.2,34,30.14,10.0,Calm,Calm,-,N/A,,Clear,0,2013-02-07 19:55:00
1:15 PM,48.2,19.4,32,30.13,10.0,Calm,Calm,-,N/A,,Clear,0,2013-02-07 20:15:00
1:35 PM,48.2,19.4,32,30.12,10.0,South,4.6,-,N/A,,Clear,190,2013-02-07 20:35:00
1:55 PM,48.2,21.2,34,30.12,10.0,WSW,4.6,-,N/A,,Clear,250,2013-02-07 20:55:00
2:15 PM,48.2,23.0,37,30.11,10.0,Calm,Calm,-,N/A,,Clear,0,2013-02-07 21:15:00
2:35 PM,48.2,19.4,32,30.10,10.0,West,3.5,-,N/A,,Clear,270,2013-02-07 21:35:00
2:55 PM,50.0,19.4,30,30.10,10.0,Calm,Calm,-,N/A,,Clear,0,2013-02-07 21:55:00
3:15 PM,50.0,19.4,30,30.09,10.0,WNW,4.6,-,N/A,,Clear,290,2013-02-07 22:15:00
3:35 PM,50.0,19.4,30,30.09,10.0,Calm,Calm,-,N/A,,Clear,0,2013-02-07 22:35:00
3:55 PM,50.0,19.4,30,30.08,10.0,Calm,Calm,-,N/A,,Clear,0,2013-02-07 22:55:00
4:15 PM,50.0,19.4,30,30.08,10.0,Calm,Calm,-,N/A,,Partly Cloudy,0,2013-02-07 23:15:00
4:35 PM,50.0,19.4,30,30.08,10.0,Calm,Calm,-,N/A,,Scattered Clouds,0,2013-02-07 23:35:00
4:55 PM,50.0,19.4,30,30.08,10.0,South,6.9,-,N/A,,Partly Cloudy,170,2013-02-07 23:55:00
5:15 PM,48.2,19.4,32,30.08,10.0,SSW,6.9,-,N/A,,Clear,210,2013-02-08 00:15:00
5:35 PM,48.2,21.2,34,30.09,10.0,SSW,8.1,-,N/A,,Clear,200,2013-02-08 00:35:00
5:55 PM,46.4,21.2,37,30.09,10.0,SW,6.9,-,N/A,,Clear,230,2013-02-08 00:55:00
6:15 PM,42.8,21.2,42,30.09,10.0,SW,4.6,-,N/A,,Clear,220,2013-02-08 01:15:00
6:35 PM,41.0,21.2,45,30.09,10.0,SSW,5.8,-,N/A,,Clear,210,2013-02-08 01:35:00
6:55 PM,39.2,21.2,49,30.09,10.0,South,5.8,-,N/A,,Clear,170,2013-02-08 01:55:00
7:15 PM,37.4,21.2,52,30.09,10.0,South,8.1,-,N/A,,Clear,170,2013-02-08 02:15:00
7:35 PM,37.4,21.2,52,30.09,10.0,South,8.1,-,N/A,,Clear,170,2013-02-08 02:35:00
7:55 PM,37.4,23.0,56,30.10,10.0,South,8.1,-,N/A,,Clear,170,2013-02-08 02:55:00
8:15 PM,37.4,23.0,56,30.10,10.0,South,8.1,-,N/A,,Clear,170,2013-02-08 03:15:00
8:35 PM,35.6,23.0,60,30.09,10.0,SSE,5.8,-,N/A,,Clear,160,2013-02-08 03:35:00
8:55 PM,35.6,24.8,65,30.09,10.0,SSE,6.9,-,N/A,,Clear,160,2013-02-08 03:55:00
9:15 PM,33.8,24.8,70,30.09,10.0,SSE,5.8,-,N/A,,Clear,150,2013-02-08 04:15:00
9:35 PM,32.0,23.0,69,30.08,10.0,SE,4.6,-,N/A,,Clear,140,2013-02-08 04:35:00
9:55 PM,32.0,24.8,75,30.08,10.0,SE,6.9,-,N/A,,Clear,140,2013-02-08 04:55:00
10:15 PM,32.0,24.8,75,30.07,10.0,SSE,4.6,-,N/A,,Clear,150,2013-02-08 05:15:00
10:35 PM,33.8,24.8,70,30.07,10.0,South,5.8,-,N/A,,Clear,170,2013-02-08 05:35:00
10:55 PM,33.8,24.8,70,30.06,10.0,South,6.9,-,N/A,,Clear,190,2013-02-08 05:55:00
11:15 PM,33.8,24.8,70,30.06,10.0,South,8.1,-,N/A,,Clear,180,2013-02-08 06:15:00
11:35 PM,33.8,24.8,70,30.04,10.0,South,4.6,-,N/A,,Clear,180,2013-02-08 06:35:00
11:55 PM,35.6,24.8,65,30.03,10.0,South,10.4,-,N/A,,Clear,180,2013-02-08 06:55:00